• MPC Preparation (Info)

  • MPEC 2014-Q102: 2014 QT362

    The following Minor Planet Electronic Circular may be linked-to from your own Web pages, but must not otherwise be redistributed electronically.

    A form allowing access to any MPEC is at the bottom of this page.


    Read MPEC 2014-Q101 Read MPEC 2014-Q103


    M.P.E.C. 2014-Q102                               Issued 2014 Aug. 30, 15:09 UT
    
         The Minor Planet Electronic Circulars contain information on unusual
             minor planets and routine data on comets.  They are published
       on behalf of Commission 20 of the International Astronomical Union by the
              Minor Planet Center, Smithsonian Astrophysical Observatory,
                              Cambridge, MA 02138, U.S.A.
    
                 Prepared using the Tamkin Foundation Computer Network
    
                                  MPC@CFA.HARVARD.EDU
                URL https://www.minorplanetcenter.net/    ISSN 1523-6714
    
                                      2014 QT362
    
    Observations:
         K14Qa2T* C2014 08 27.53176 00 49 33.827+03 48 36.61         20.4 wLEQ102F51
         K14Qa2T  C2014 08 27.54539 00 49 33.466+03 49 33.03         20.4 wLEQ102F51
         K14Qa2T  C2014 08 27.55899 00 49 33.111+03 50 29.06         20.3 wLEQ102F51
         K14Qa2T  C2014 08 27.57262 00 49 32.747+03 51 25.60         20.4 wLEQ102F51
         K14Qa2T  C2014 08 28.04808 00 49 25.17 +04 24 22.7          19.7 VMEQ102033
         K14Qa2T  C2014 08 28.05263 00 49 25.07 +04 24 41.8          19.7 VMEQ102033
         K14Qa2T  C2014 08 28.09024 00 49 24.10 +04 27 21.0          19.2 VMEQ102033
         K14Qa2T  C2014 08 28.09479 00 49 23.98 +04 27 40.1          19.2 VMEQ102033
         K14Qa2T KC2014 08 28.26274500 49 21.71 +04 39 36.9          20.3 VuEQ102H21
         K14Qa2T KC2014 08 28.26701300 49 21.60 +04 39 55.1          20.4 VuEQ102H21
         K14Qa2T KC2014 08 28.27142900 49 21.48 +04 40 14.1          20.3 VuEQ102H21
         K14Qa2T KC2014 08 29.02436 00 49 05.42 +05 34 30.4          19.3 VqEQ102595
         K14Qa2T KC2014 08 29.03496 00 49 05.06 +05 35 17.0                qEQ102595
         K14Qa2T KC2014 08 29.04411 00 49 04.91 +05 35 57.2          19.5 RqEQ102203
         K14Qa2T KC2014 08 29.06258 00 49 04.55 +05 37 16.3                qEQ102J95
         K14Qa2T KC2014 08 29.06860 00 49 04.15 +05 37 45.6          19.6 RqEQ102203
         K14Qa2T KC2014 08 29.06939 00 49 04.38 +05 37 46.0                qEQ102J95
         K14Qa2T KC2014 08 29.07754 00 49 04.11 +05 38 22.5          19.7 RqEQ102J95
         K14Qa2T KC2014 08 30.49998 00 48 25.55 +07 25 57.0          19.2 RoEQ102291
         K14Qa2T KC2014 08 30.50090 00 48 25.51 +07 26 01.4          19.2 RoEQ102291
         K14Qa2T KC2014 08 30.50182 00 48 25.48 +07 26 05.5          19.7 RoEQ102291
    
    Observer details:
    033 Karl Schwarzschild Observatory, Tautenburg.  Observer B. Stecklum.  1.34-m
        f/4 Schmidt + CCD.
    203 GiaGa Observatory.  Observers S. Foglia, G. Galli.  Measurer G. Galli.
        0.28-m f/6.8 Schmidt-Cassegrain + CCD.
    291 LPL/Spacewatch II.  Observer T. H. Bressi.  1.8-m f/2.7 reflector + CCD.
    595 Farra d'Isonzo.  Observer E. Pettarin.  0.61-m f/4.0 reflector + CCD.
    F51 Pan-STARRS 1, Haleakala.  Observers N. Primak, A. Schultz, T. Goggia,
        M. Willman.  Measurers B. Bolin, K. Chambers, S. Chastel, L. Denneau,
        H. Flewelling, M. Huber, E. Magnier, E. Schunova, R. Wainscoat, C. Waters.
        1.8-m Ritchey-Chretien + CCD.
    H21 Astronomical Research Observatory, Westfield.  Observer R. Holmes.
        Measurers L. Buzzi, S. Foglia, T. Vorobjov, T. Linder.  0.61-m f/4.5
        astrograph + CCD.
    J95 Great Shefford.  Observer P. Birtwhistle.  0.40-m f/6.0 Schmidt-Cassegrain
        + CCD.
    
    Orbital elements:
    2014 QT362                                               Earth MOID = 0.2150 AU
    Epoch 2014 Dec. 9.0 TT = JDT 2457000.5                  MPC
    M  13.63900              (2000.0)            P               Q
    n   0.41849325     Peri.   64.73109     +0.63903460     -0.76174165
    a   1.7701514      Node   344.07815     +0.48769170     +0.50852744
    e   0.3959755      Incl.   22.88892     +0.59480382     +0.40143430
    P   2.36           H   20.7           G   0.15           U   7
    Residuals in seconds of arc
    140827 F51  0.0   0.0     140828 033  0.0   0.3+    140829 J95  0.1-  0.1-
    140827 F51  0.0   0.1+    140828 H21  0.1-  0.0     140829 203  0.3-  0.5+
    140827 F51  0.0   0.2-    140828 H21  0.1-  0.0     140829 J95  0.4+  0.4-
    140827 F51  0.0   0.1-    140828 H21  0.1-  0.2+    140829 J95  0.0   0.2+
    140828 033  0.0   0.3+    140829 595  0.2-  0.1+    140830 291  0.0   0.0
    140828 033  0.3+  0.2+    140829 595  0.7-  0.1+    140830 291  0.1-  0.1+
    140828 033  0.1+  0.4+    140829 203  0.3-  0.1-    140830 291  0.0   0.1-
    
    Ephemeris:
    2014 QT362               a,e,i = 1.77, 0.40, 23                  q = 1.0692
    Date    TT    R. A. (2000) Decl.     Delta      r     Elong.  Phase     V
    2014 07 31    00 36 51.0 -15 25 25   0.5934  1.4307   123.5    36.3    21.8
    ...
    2014 08 15    00 47 56.8 -07 26 28   0.4376  1.3486   132.7    33.5    21.0
    ...
    2014 08 23    00 50 02.6 -00 56 10   0.3653  1.3063   138.1    31.1    20.4
    ...
    2014 08 29    00 49 05.7 +05 32 58   0.3180  1.2756   141.9    29.2    20.0
    2014 08 30    00 48 40.8 +06 47 38   0.3108  1.2706   142.5    28.9    20.0
    2014 08 31    00 48 10.9 +08 05 20   0.3039  1.2656   143.0    28.7    19.9
    ...
    2014 09 06    00 43 14.4 +16 58 57   0.2675  1.2364   144.8    28.0    19.5
    ...
    2014 09 14    00 29 46.1 +31 40 31   0.2356  1.1998   141.7    31.3    19.3
    ...
    2014 09 29    23 23 50.6 +60 20 37   0.2348  1.1403   120.9    49.0    19.7
    
    A. U. Tomatic                (C) Copyright 2014 MPC           M.P.E.C. 2014-Q102
    

    Read MPEC 2014-Q101 Read MPEC 2014-Q103


    MPEC number:

    Enter an MPEC number in one of the following forms:

    • 1997-B01 (the full form)
    • J97B01 (the packed version of the full form)
    • B01 (the abbreviated form)